Wind_Speed
38 38 39 40 41 42 43 44 45 45 45 45 45 44 43 43 44 44 44 45 45 45 44 45 46 46 46 46 46 47 48 48 47 47 47 47 47 47 47 46 45 45 45 44
38 38 39 40 41 42 42 44 44 45 45 46 46 45 44 44 44 44 44 44 44 45 45 45 46 46 47 47 47 48 48 48 48 47 48 48 48 48 47 47 47 47 46 45
39 38 39 39 40 42 42 43 44 45 46 46 46 46 45 45 45 44 44 44 44 45 45 46 46 47 47 47 48 48 48 49 49 48 48 49 49 48 48 48 49 48 48 48
38 38 38 38 39 40 41 42 43 44 45 46 46 47 44 44 45 45 44 44 45 45 46 46 47 47 48 48 48 48 49 49 49 48 48 48 48 48 47 48 50 50 49 49
37 37 36 37 37 38 40 40 41 42 43 45 45 47 45 43 43 44 44 44 45 45 45 46 46 46 48 49 49 49 49 50 50 49 49 49 50 49 48 48 49 51 51 51
35 35 36 36 36 36 37 38 40 41 42 44 43 44 45 43 42 42 43 43 44 45 45 45 46 46 47 48 49 50 50 51 52 51 50 50 50 50 50 50 49 49 49 51
31 32 33 34 34 34 35 36 37 39 41 42 41 43 44 42 40 40 41 42 42 44 45 45 45 46 46 46 48 49 50 51 52 52 51 51 51 51 52 52 52 50 49 50
29 29 29 30 31 32 32 33 34 36 38 39 39 41 41 41 40 40 40 41 42 43 44 45 45 45 45 46 47 47 49 51 51 51 51 51 51 51 52 53 52 52 51 50
29 28 27 28 28 28 29 30 32 34 35 36 37 39 40 40 39 39 39 40 41 42 43 45 45 46 46 46 47 47 48 49 50 51 52 52 51 51 52 53 53 53 52 52
27 27 26 26 27 27 28 29 29 31 33 35 36 36 37 37 37 38 38 39 40 41 42 43 45 46 47 47 47 48 48 48 50 50 51 51 52 52 53 53 53 53 53 53
26 27 25 25 25 25 27 28 30 30 31 33 34 35 34 35 35 36 38 38 37 38 41 43 44 45 46 47 47 47 47 47 49 49 50 51 52 53 53 54 53 53 53 53
26 27 27 25 24 24 25 26 28 30 31 33 34 35 33 34 35 35 36 36 37 37 38 40 42 44 45 46 47 47 47 47 47 48 49 50 51 52 53 53 53 53 53 54
26 27 27 26 25 25 25 25 26 28 30 32 34 34 33 34 34 34 35 35 36 36 37 38 40 41 43 44 45 45 45 46 46 47 48 49 50 52 53 53 53 53 53 53
26 26 26 26 26 25 25 25 25 27 29 31 31 32 32 34 34 33 34 34 35 35 36 38 38 39 40 41 43 44 44 45 46 46 47 48 49 51 52 53 54 53 53 53
27 27 26 26 25 26 25 25 26 27 28 31 30 30 30 32 34 34 34 34 33 33 34 36 37 37 38 40 41 43 44 45 45 46 47 47 48 49 51 52 53 53 53 54
26 27 27 26 25 26 26 26 26 27 28 29 30 29 29 30 32 34 33 32 32 32 33 34 36 37 37 38 39 41 42 44 45 46 47 47 48 49 50 51 52 53 53 54
26 26 27 26 25 26 26 25 26 26 26 28 28 27 28 28 28 29 30 31 31 31 32 33 35 36 36 37 39 41 41 42 44 45 46 47 48 48 49 50 51 52 53 54
25 25 26 26 25 25 25 24 24 24 24 25 26 26 26 27 27 26 27 29 30 30 31 31 32 34 35 36 37 38 40 41 43 44 45 46 46 47 48 49 49 50 52 53
23 24 25 25 25 25 24 23 24 24 23 23 24 25 26 26 27 26 26 28 29 29 30 30 30 31 33 35 36 36 37 38 40 42 43 44 45 45 46 47 48 49 51 52
23 23 24 24 25 26 24 24 23 24 24 22 23 24 24 25 26 26 26 26 28 29 30 30 31 31 32 34 35 36 37 38 39 40 42 43 43 44 44 46 47 48 49 51
23 24 24 25 26 26 25 24 23 23 23 23 23 23 23 23 24 24 25 26 27 29 30 31 31 32 33 34 35 36 37 37 38 40 41 42 43 43 44 45 46 47 48 49
24 24 24 25 26 25 24 24 24 23 23 23 23 23 23 23 23 24 25 26 27 28 29 31 32 33 34 36 36 36 36 37 38 40 41 42 43 43 44 44 45 45 46 47
24 24 25 25 25 24 24 24 23 23 23 23 23 23 23 23 24 25 26 27 27 28 29 30 31 32 34 35 36 36 37 37 38 38 38 39 40 41 42 42 43 44 44 45
24 24 25 25 24 24 24 24 24 24 23 23 23 23 23 24 24 25 27 28 29 29 29 30 30 31 32 33 34 35 36 36 36 36 37 38 38 39 39 40 40 41 42 43
24 24 24 24 24 23 22 23 23 23 23 23 23 24 24 24 25 26 26 27 28 29 30 31 31 31 31 32 33 34 35 35 36 36 37 38 38 39 40 40 40 40 40 40
23 23 24 23 23 23 22 22 23 24 24 23 23 23 24 25 26 26 27 27 28 29 30 30 31 31 31 31 32 33 33 34 35 36 36 37 38 39 39 40 40 41 41 41
Wind_Direction
274 271 269 269 267 265 264 263 263 262 261 260 260 259 257 256 254 253 252 251 250 249 248 247 246 245 245 245 246 245 244 243 243 243 244 245 246 246 246 247 248 248 247 245
274 272 272 269 267 265 264 263 263 261 260 260 260 258 256 255 254 254 252 251 250 249 247 246 246 246 246 246 246 245 244 243 243 244 244 245 246 246 247 247 248 249 248 247
275 274 272 271 269 267 265 264 263 263 262 261 260 258 256 255 255 254 253 251 250 248 247 246 245 245 246 245 245 245 244 243 243 244 244 245 246 247 248 248 248 247 248 247
276 274 273 272 270 268 266 264 263 263 262 261 260 259 255 255 253 253 252 250 249 249 248 246 245 245 246 246 245 245 244 243 243 244 245 245 246 247 248 248 247 248 249 248
277 275 273 272 271 269 268 265 263 263 262 262 259 259 256 254 252 251 251 250 248 248 248 246 245 246 246 246 245 245 244 243 243 245 246 246 246 247 248 249 249 248 248 248
280 276 274 273 272 270 268 266 264 263 262 261 259 259 257 255 254 251 250 249 248 247 247 247 246 245 245 246 245 245 244 244 245 246 246 247 247 247 248 249 249 250 249 249
282 280 278 276 275 272 268 267 265 264 261 261 259 258 258 256 254 252 250 249 249 247 245 245 246 245 245 246 247 246 246 246 246 247 247 248 248 248 248 249 249 250 250 250
287 284 281 279 277 275 270 267 265 265 264 263 260 259 258 257 256 254 253 252 252 250 247 245 245 246 246 246 246 247 247 246 246 247 247 247 247 248 249 249 250 250 251 251
292 289 284 281 277 276 273 266 265 265 265 264 263 262 260 258 257 256 255 254 253 252 249 247 247 247 247 246 246 247 247 246 246 246 246 246 247 247 247 248 250 251 251 252
295 292 289 285 279 274 273 268 264 265 267 267 265 264 262 259 259 257 257 257 256 254 251 249 248 248 248 247 246 247 248 247 246 246 246 246 246 246 247 247 249 250 251 252
296 295 293 288 282 278 273 269 264 265 267 268 268 265 264 262 261 259 258 257 258 255 254 252 250 249 249 248 248 247 248 248 247 246 246 247 245 246 246 247 248 250 250 250
297 295 294 289 282 281 277 273 268 265 265 265 267 267 265 263 262 261 260 259 258 257 255 253 251 250 249 248 248 248 248 248 248 247 246 246 245 246 246 247 249 250 250 250
298 297 296 292 286 283 280 276 273 269 266 266 266 268 265 263 263 263 263 262 260 258 255 252 250 249 248 248 247 247 247 248 248 247 247 247 247 247 247 248 249 249 249 249
299 297 294 292 289 285 282 278 275 272 270 268 268 268 265 263 262 262 262 262 262 260 257 253 249 248 247 246 246 246 247 248 248 248 248 247 248 248 248 249 249 249 249 249
298 298 296 293 289 285 284 281 279 276 274 272 269 269 268 265 263 262 262 261 261 260 257 254 250 249 248 247 247 246 247 248 248 249 248 249 249 249 249 249 250 250 249 249
296 297 297 294 291 287 285 283 281 278 276 275 272 270 270 268 263 261 261 260 258 258 256 254 251 249 248 248 247 246 247 248 249 249 248 249 249 250 250 250 250 249 249 250
298 298 297 294 292 289 287 287 284 281 278 277 274 270 268 266 264 260 258 257 257 257 255 252 250 249 248 248 248 248 249 250 251 250 250 250 251 251 250 250 250 250 250 250
299 298 297 296 295 293 294 291 288 285 280 279 275 271 268 266 264 261 257 255 255 256 255 253 250 249 249 250 250 250 250 251 251 251 251 252 252 251 251 250 251 251 252 252
300 298 297 298 296 296 299 297 291 288 284 280 277 273 270 267 264 262 259 257 256 256 255 253 251 250 249 251 251 252 253 253 253 252 253 253 252 252 252 251 252 253 253 253
300 299 297 297 296 298 302 300 295 290 286 282 280 277 273 269 266 264 262 260 258 257 254 254 254 253 252 252 253 254 254 255 255 255 254 254 253 253 254 254 254 255 255 255
301 299 297 297 297 298 302 299 297 292 289 283 280 278 275 271 269 266 264 262 260 258 256 256 257 256 255 255 256 256 256 256 256 256 255 254 253 254 255 256 256 257 257 257
303 301 299 297 297 300 300 297 296 293 288 284 280 278 276 273 270 267 265 264 264 263 261 259 258 258 258 258 259 258 258 257 257 257 255 254 254 255 256 256 257 257 258 258
304 302 299 299 300 299 297 295 294 293 289 285 281 278 277 274 271 269 268 267 266 266 266 264 262 261 260 261 261 260 260 260 259 258 257 256 256 256 256 256 257 257 258 257
303 300 298 298 300 299 298 295 293 292 292 288 283 278 277 275 273 271 270 269 268 267 267 266 264 263 262 263 262 261 261 261 260 259 258 257 257 257 256 257 257 258 258 258
302 300 299 299 300 300 298 295 292 291 292 289 285 281 278 276 273 272 271 270 269 268 267 267 266 265 265 264 263 262 262 261 261 261 260 259 258 257 257 257 258 258 258 259
300 298 300 301 301 300 299 297 295 293 292 290 286 282 280 279 275 273 272 270 270 269 268 267 267 266 266 265 265 264 262 261 260 260 260 260 259 258 257 257 258 259 259 259
Height
5658 5658 5657 5657 5655 5656 5655 5655 5655 5658 5657 5657 5657 5659 5661 5662 5664 5667 5669 5671 5674 5677 5679 5682 5685 5687 5690 5693 5696 5699 5703 5706 5710 5714 5718 5721 5724 5727 5731 5734 5736 5739 5742 5744
5647 5646 5646 5644 5643 5642 5642 5641 5643 5644 5644 5643 5644 5646 5649 5651 5653 5655 5657 5660 5662 5665 5667 5670 5673 5676 5679 5682 5685 5688 5692 5696 5700 5703 5707 5710 5713 5716 5720 5723 5726 5728 5731 5734
5635 5635 5633 5631 5631 5630 5629 5630 5631 5631 5631 5631 5631 5633 5637 5639 5641 5643 5645 5648 5650 5653 5656 5659 5661 5665 5667 5670 5673 5677 5680 5684 5688 5692 5695 5699 5702 5705 5709 5712 5714 5717 5720 5723
5623 5622 5621 5619 5618 5617 5617 5618 5618 5618 5617 5618 5619 5619 5625 5626 5628 5631 5633 5636 5638 5641 5644 5647 5650 5653 5656 5659 5662 5665 5669 5673 5676 5680 5683 5687 5691 5694 5698 5700 5702 5705 5708 5711
5611 5610 5609 5608 5607 5605 5605 5606 5605 5605 5605 5605 5606 5606 5611 5613 5615 5619 5622 5624 5626 5629 5632 5635 5638 5641 5644 5647 5650 5654 5657 5661 5664 5668 5671 5675 5679 5682 5685 5688 5690 5693 5696 5699
5599 5597 5597 5596 5595 5594 5593 5594 5593 5592 5592 5591 5595 5595 5597 5601 5604 5607 5610 5612 5614 5617 5620 5623 5626 5629 5632 5635 5638 5641 5645 5649 5652 5656 5659 5663 5666 5670 5673 5676 5679 5681 5684 5687
5590 5588 5586 5585 5584 5584 5583 5583 5582 5580 5579 5580 5584 5583 5586 5590 5592 5595 5598 5600 5602 5604 5607 5610 5613 5617 5620 5623 5626 5629 5633 5636 5640 5644 5647 5651 5654 5657 5660 5663 5666 5669 5672 5675
5581 5580 5578 5575 5574 5573 5573 5572 5572 5571 5570 5571 5572 5571 5577 5579 5581 5583 5585 5588 5590 5592 5595 5598 5601 5604 5607 5610 5613 5617 5620 5624 5627 5631 5634 5638 5641 5644 5648 5651 5653 5657 5660 5662
5571 5571 5569 5567 5565 5564 5563 5562 5562 5561 5560 5560 5560 5562 5566 5567 5570 5572 5574 5576 5578 5580 5582 5585 5588 5591 5594 5597 5600 5604 5607 5611 5614 5617 5621 5625 5628 5631 5635 5638 5640 5643 5647 5649
5563 5562 5561 5559 5557 5556 5555 5554 5553 5552 5550 5550 5551 5552 5555 5557 5559 5561 5562 5564 5566 5568 5570 5572 5575 5579 5582 5585 5588 5591 5594 5597 5601 5604 5607 5611 5615 5618 5621 5624 5627 5630 5633 5636
5555 5554 5552 5551 5549 5547 5547 5546 5544 5543 5543 5542 5541 5545 5546 5547 5549 5550 5551 5553 5554 5556 5558 5560 5563 5566 5569 5572 5575 5578 5581 5585 5588 5591 5594 5597 5601 5604 5608 5611 5614 5617 5620 5623
5548 5546 5544 5543 5541 5539 5538 5537 5536 5536 5534 5533 5533 5537 5537 5537 5538 5539 5540 5541 5543 5544 5546 5548 5550 5553 5556 5559 5562 5565 5569 5572 5575 5578 5581 5584 5587 5590 5594 5597 5601 5603 5606 5609
5541 5539 5536 5535 5536 5533 5530 5529 5528 5527 5526 5525 5524 5528 5527 5527 5527 5528 5529 5530 5531 5533 5535 5536 5538 5541 5544 5547 5550 5553 5556 5559 5562 5564 5567 5571 5574 5577 5580 5583 5586 5589 5593 5595
5534 5532 5530 5528 5526 5524 5522 5522 5520 5518 5517 5516 5516 5517 5518 5517 5517 5518 5519 5520 5521 5522 5523 5525 5527 5530 5532 5535 5538 5541 5544 5546 5549 5551 5554 5557 5560 5563 5566 5569 5572 5575 5578 5581
5527 5525 5522 5520 5518 5516 5514 5513 5512 5510 5509 5508 5508 5507 5508 5507 5507 5508 5508 5509 5510 5511 5512 5514 5516 5519 5521 5523 5526 5529 5531 5534 5536 5539 5542 5544 5547 5549 5552 5555 5558 5561 5564 5567
5520 5517 5515 5513 5511 5508 5506 5505 5503 5502 5500 5499 5498 5498 5498 5497 5497 5498 5499 5500 5501 5501 5502 5504 5506 5508 5510 5512 5514 5517 5519 5522 5524 5527 5529 5531 5534 5536 5539 5541 5544 5547 5549 5552
5513 5510 5507 5505 5503 5500 5499 5498 5495 5493 5492 5491 5489 5490 5488 5488 5488 5488 5489 5490 5490 5491 5492 5493 5495 5497 5499 5501 5504 5506 5508 5510 5512 5514 5516 5518 5521 5523 5525 5527 5530 5533 5536 5538
5506 5503 5499 5497 5496 5493 5494 5490 5487 5485 5484 5482 5481 5480 5480 5480 5479 5480 5480 5480 5481 5482 5483 5484 5485 5487 5489 5491 5492 5494 5496 5498 5500 5501 5503 5505 5507 5509 5511 5514 5516 5519 5522 5524
5499 5496 5493 5490 5487 5485 5485 5482 5479 5477 5476 5475 5473 5472 5472 5471 5471 5471 5471 5472 5472 5473 5474 5475 5476 5478 5479 5481 5482 5484 5485 5486 5488 5489 5490 5492 5494 5496 5498 5500 5503 5505 5508 5510
5492 5489 5487 5483 5480 5478 5479 5475 5471 5469 5468 5467 5466 5465 5464 5463 5464 5465 5463 5464 5464 5464 5465 5466 5467 5468 5469 5470 5472 5473 5474 5475 5476 5477 5479 5480 5482 5484 5486 5488 5490 5491 5493 5496
5486 5483 5480 5476 5472 5471 5471 5467 5464 5463 5462 5460 5458 5456 5456 5455 5456 5456 5455 5455 5456 5456 5457 5457 5458 5459 5460 5460 5461 5462 5463 5464 5465 5466 5467 5468 5470 5471 5473 5475 5476 5478 5480 5482
5479 5476 5473 5469 5466 5466 5462 5459 5457 5455 5453 5451 5450 5448 5447 5447 5447 5447 5447 5447 5447 5447 5448 5448 5449 5449 5449 5450 5451 5452 5453 5453 5453 5454 5455 5456 5458 5459 5461 5462 5463 5465 5466 5468
5472 5470 5466 5463 5462 5458 5455 5452 5449 5447 5445 5443 5442 5441 5440 5439 5439 5438 5438 5438 5438 5438 5438 5439 5439 5439 5439 5440 5440 5441 5441 5441 5442 5443 5443 5444 5445 5447 5448 5449 5451 5452 5453 5454
5465 5462 5458 5455 5453 5451 5447 5444 5442 5440 5437 5435 5434 5433 5431 5431 5430 5430 5429 5429 5429 5429 5429 5429 5429 5429 5429 5429 5429 5430 5430 5430 5431 5431 5432 5433 5434 5435 5436 5437 5438 5439 5441 5442
5458 5454 5451 5448 5446 5443 5440 5437 5435 5432 5430 5428 5426 5424 5423 5422 5421 5421 5420 5420 5420 5420 5419 5419 5419 5419 5419 5419 5419 5419 5419 5419 5420 5420 5421 5421 5422 5423 5424 5425 5426 5427 5428 5429
5451 5448 5444 5442 5439 5436 5434 5431 5428 5425 5423 5420 5418 5417 5415 5414 5413 5412 5411 5411 5410 5410 5410 5410 5409 5409 5409 5408 5408 5408 5408 5408 5409 5409 5410 5410 5411 5412 5412 5413 5414 5415 5416 5417